Вернуться в каталог

STARLINK-33764

АктивенСвязьVLEO
NORAD 63510·PAYLOAD·🇺🇸 United States

Запущен Apr 7, 2025 с Vandenberg Space Force Base

Loading…

Ближайшие Пролёты (ближайшие 24 часа)

TLE

СвежийSource: CelesTrak SupGP

Эпоха: Sep 15, 2026, 02:41 UTC

1 63510C 25071T   26258.11229167  .00072260  00000+0  21353-2 0  2582
2 63510  53.1573 338.6083 0001201  90.6187 195.2128 15.34349799    10

Отслеживайте STARLINK-33764 в реальном времени с AllMySat

Download on the App Store